CW3201 Weather Reports


time (UTC)temp
F
wind
direction
speed
knots
gust
knots
rain 1hr
in
rain 24hr
in
rain mn
in
humidity
%
barometer
mb
20260906213324 87 150 5.2 9.6 0.00 0.00 0.00 29 1013.4
20260906210328 88 150 7.0 8.7 0.00 0.00 0.00 27 1014.1
20260906203321 89 172 5.2 9.6 0.00 0.00 0.00 26 1014.2
20260906200317 88 148 4.3 12.2 0.00 0.00 0.00 24 1014.2
20260906193324 88 143 2.6 9.6 0.00 0.00 0.00 25 1014.6
20260906190321 87 128 4.3 7.8 0.00 0.00 0.00 25 1015.0
20260906183328 85 181 3.5 5.2 0.00 0.00 0.00 29 1015.8
20260906180319 83 74 4.3 7.0 0.00 0.00 0.00 36 1016.2
20260906173348 81 24 1.7 7.0 0.00 0.00 0.00 39 1016.6
20260906170332 78 163 3.5 7.0 0.00 0.00 0.00 44 1017.1
20260906163320 79 182 1.7 3.5 0.00 0.00 0.00 39 1017.2
20260906160354 75 178 0.0 2.6 0.00 0.00 0.00 47 1017.2
20260906153328 72 142 0.0 3.5 0.00 0.00 0.00 51 1017.3
20260906150323 67 80 0.0 4.3 0.00 0.00 0.00 55 1017.5
20260906143321 66 123 2.6 6.1 0.00 0.00 0.00 56 1017.7
20260906140324 65 124 3.5 7.0 0.00 0.00 0.00 58 1017.6
20260906133321 60 317 2.6 4.3 0.00 0.00 0.00 66 1017.2
20260906130346 57 344 2.6 5.2 0.00 0.00 0.00 69 1017.1
20260906123357 54 311 2.6 4.3 0.00 0.00 0.00 75 1016.9
20260906120339 55 276 5.2 6.1 0.00 0.00 0.00 74 1016.7
20260906113335 56 282 3.5 5.2 0.00 0.00 0.00 67 1017.0
20260906110337 56 23 0.0 2.6 0.00 0.00 0.00 66 1017.0
20260906103343 56 253 1.7 5.2 0.00 0.00 0.00 65 1016.9
20260906100345 58 205 3.5 4.3 0.00 0.00 0.00 59 1016.9
20260906093354 61 277 3.5 6.1 0.00 0.00 0.00 57 1016.6
20260906090325 63 277 3.5 7.0 0.00 0.00 0.00 54 1016.6
20260906083331 58 350 0.9 2.6 0.00 0.00 0.00 66 1016.6
20260906080325 60 281 2.6 5.2 0.00 0.00 0.00 63 1016.6
20260906073324 63 227 1.7 1.7 0.00 0.00 0.00 65 1016.8
20260906070325 65 200 2.6 2.6 0.00 0.00 0.00 65 1016.6
20260906063334 66 140 1.7 2.6 0.00 0.00 0.00 63 1016.6
20260906060325 68 122 0.0 3.5 0.00 0.00 0.00 60 1016.4
20260906053331 70 83 5.2 7.0 0.00 0.00 0.00 56 1016.5
20260906050326 69 126 0.9 4.3 0.00 0.00 0.00 55 1016.6
20260906043336 72 101 2.6 7.8 0.00 0.00 0.00 50 1016.6
20260906040329 73 113 6.1 8.7 0.00 0.00 0.00 49 1016.6
20260906033323 74 82 5.2 9.6 0.00 0.00 0.00 43 1016.7
20260906030357 76 34 0.0 0.0 0.00 0.00 0.00 38 1016.2
20260906023319 77 34 0.0 0.0 0.00 0.00 0.00 35 1016.2
20260906020336 79 63 0.0 0.0 0.00 0.00 0.00 34 1016.0
20260906013318 81 107 0.0 0.0 0.00 0.00 0.00 32 1016.0
20260906010327 82 115 0.0 0.0 0.00 0.00 0.00 34 1016.0
20260906003323 87 113 0.0 0.0 0.00 0.00 0.00 27 1015.9
20260906000329 87 119 1.7 3.5 0.00 0.00 0.00 25 1015.8
20260905233400 87 128 5.2 7.8 0.00 0.00 0.00 25 1015.5
20260905230336 89 126 1.7 7.0 0.00 0.00 0.00 25 1015.5
20260905223320 88 88 0.9 4.3 0.00 0.00 0.00 25 1015.8
20260905220328 87 111 3.5 8.7 0.00 0.00 0.00 25 1016.0